| time (UTC) | temp F | wind direction | speed knots | gust knots | rain 1hr in | rain 24hr in | rain mn in | humidity % | barometer mb |
| 20260505023006 | 49 | 300 | 2.6 | 7.0 | 0.00 | 0.00 | 0.00 | 48 | 1003.1 |
| 20260505022506 | 49 | 303 | 1.7 | 6.1 | 0.00 | 0.00 | 0.00 | 48 | 1003.0 |
| 20260505022006 | 49 | 302 | 1.7 | 6.1 | 0.00 | 0.00 | 0.00 | 48 | 1002.9 |
| 20260505021505 | 50 | 298 | 2.6 | 4.3 | 0.00 | 0.00 | 0.00 | 47 | 1002.7 |
| 20260505020006 | 50 | 297 | 2.6 | 7.0 | 0.00 | 0.00 | 0.00 | 47 | 1002.4 |
| 20260505015505 | 50 | 305 | 2.6 | 7.0 | 0.00 | 0.00 | 0.00 | 47 | 1002.3 |
| 20260505015006 | 50 | 304 | 2.6 | 7.8 | 0.00 | 0.00 | 0.00 | 47 | 1002.2 |
| 20260505014506 | 51 | 301 | 2.6 | 7.0 | 0.00 | 0.00 | 0.00 | 47 | 1002.1 |
| 20260505014006 | 51 | 304 | 2.6 | 7.0 | 0.00 | 0.00 | 0.00 | 46 | 1002.1 |
| 20260505013505 | 51 | 277 | 3.5 | 10.4 | 0.00 | 0.00 | 0.00 | 47 | 1001.9 |
| 20260505013005 | 51 | 304 | 1.7 | 6.1 | 0.00 | 0.00 | 0.00 | 46 | 1001.8 |
| 20260505012506 | 51 | 290 | 3.5 | 7.8 | 0.00 | 0.00 | 0.00 | 46 | 1001.7 |
| 20260505012005 | 52 | 320 | 2.6 | 7.0 | 0.00 | 0.00 | 0.00 | 45 | 1001.6 |
| 20260505011506 | 52 | 294 | 2.6 | 7.8 | 0.00 | 0.00 | 0.00 | 46 | 1001.5 |
| 20260505011005 | 52 | 293 | 3.5 | 8.7 | 0.00 | 0.00 | 0.00 | 45 | 1001.4 |
| 20260505010506 | 52 | 306 | 2.6 | 7.8 | 0.00 | 0.00 | 0.00 | 45 | 1001.2 |
| 20260505010005 | 53 | 292 | 3.5 | 10.4 | 0.00 | 0.00 | 0.00 | 45 | 1001.1 |
| 20260505005505 | 53 | 294 | 4.3 | 11.3 | 0.00 | 0.00 | 0.00 | 45 | 1001.1 |
| 20260505005006 | 53 | 259 | 2.6 | 7.8 | 0.00 | 0.00 | 0.00 | 45 | 1000.9 |
| 20260505003505 | 54 | 270 | 2.6 | 10.4 | 0.00 | 0.00 | 0.00 | 44 | 1000.7 |
| 20260505003006 | 54 | 300 | 2.6 | 8.7 | 0.00 | 0.00 | 0.00 | 45 | 1000.5 |
| 20260505002506 | 54 | 268 | 2.6 | 7.0 | 0.00 | 0.00 | 0.00 | 44 | 1000.5 |
| 20260505001506 | 55 | 313 | 0.9 | 4.3 | 0.00 | 0.00 | 0.00 | 46 | 1000.4 |
| 20260505001005 | 55 | 299 | 2.6 | 8.7 | 0.00 | 0.00 | 0.00 | 44 | 1000.4 |
| 20260505000505 | 55 | 302 | 5.2 | 10.4 | 0.00 | 0.00 | 0.00 | 43 | 1000.4 |
| 20260505000005 | 56 | 250 | 2.6 | 10.4 | 0.00 | 0.00 | 0.00 | 43 | 1000.3 |
| 20260504235505 | 56 | 296 | 4.3 | 11.3 | 0.00 | 0.00 | 0.00 | 42 | 1000.3 |
| 20260504235006 | 56 | 264 | 3.5 | 10.4 | 0.00 | 0.00 | 0.00 | 42 | 1000.2 |
| 20260504234506 | 56 | 305 | 1.7 | 8.7 | 0.00 | 0.00 | 0.00 | 43 | 1000.1 |
| 20260504234006 | 57 | 298 | 2.6 | 13.0 | 0.00 | 0.00 | 0.00 | 42 | 1000.0 |
| 20260504233505 | 57 | 272 | 4.3 | 7.8 | 0.00 | 0.00 | 0.00 | 41 | 1000.1 |
| 20260504233006 | 57 | 275 | 4.3 | 14.8 | 0.00 | 0.00 | 0.00 | 42 | 1000.0 |
| 20260504232506 | 58 | 304 | 1.7 | 10.4 | 0.00 | 0.00 | 0.00 | 41 | 999.9 |
| 20260504232006 | 58 | 285 | 5.2 | 10.4 | 0.00 | 0.00 | 0.00 | 40 | 999.8 |
| 20260504231505 | 59 | 293 | 6.1 | 13.9 | 0.00 | 0.00 | 0.00 | 40 | 999.6 |
| 20260504231006 | 59 | 283 | 2.6 | 7.8 | 0.00 | 0.00 | 0.00 | 39 | 999.6 |
| 20260504230505 | 59 | 283 | 4.3 | 8.7 | 0.00 | 0.00 | 0.00 | 40 | 999.5 |
| 20260504230006 | 59 | 263 | 3.5 | 7.0 | 0.00 | 0.00 | 0.00 | 39 | 999.5 |
| 20260504225506 | 59 | 259 | 1.7 | 7.0 | 0.00 | 0.00 | 0.00 | 41 | 999.3 |
| 20260504224005 | 60 | 282 | 2.6 | 8.7 | 0.00 | 0.00 | 0.00 | 38 | 999.2 |
| 20260504223506 | 60 | 244 | 2.6 | 15.6 | 0.00 | 0.00 | 0.00 | 38 | 999.1 |
| 20260504223005 | 60 | 301 | 4.3 | 15.6 | 0.00 | 0.00 | 0.00 | 38 | 999.1 |
| 20260504222505 | 60 | 241 | 5.2 | 12.2 | 0.00 | 0.00 | 0.00 | 37 | 999.0 |
| 20260504222006 | 60 | 277 | 5.2 | 14.8 | 0.00 | 0.00 | 0.00 | 37 | 998.6 |
| 20260504221006 | 61 | 281 | 6.1 | 12.2 | 0.00 | 0.00 | 0.00 | 37 | 998.5 |
| 20260504220505 | 61 | 297 | 3.5 | 10.4 | 0.00 | 0.00 | 0.00 | 38 | 998.4 |
| 20260504220005 | 61 | 207 | 1.7 | 5.2 | 0.00 | 0.00 | 0.00 | 37 | 998.4 |
| 20260504215506 | 61 | 227 | 3.5 | 8.7 | 0.00 | 0.00 | 0.00 | 37 | 998.3 |
| 20260504214505 | 61 | 298 | 2.6 | 13.0 | 0.00 | 0.00 | 0.00 | 39 | 998.2 |
| 20260504214005 | 61 | 217 | 2.6 | 7.0 | 0.00 | 0.00 | 0.00 | 40 | 998.3 |
| 20260504213505 | 61 | 268 | 2.6 | 7.8 | 0.00 | 0.00 | 0.00 | 38 | 998.4 |
| 20260504213005 | 61 | 242 | 4.3 | 12.2 | 0.00 | 0.00 | 0.00 | 39 | 998.4 |
| 20260504212005 | 61 | 273 | 3.5 | 10.4 | 0.00 | 0.00 | 0.00 | 36 | 998.6 |
| 20260504211505 | 61 | 261 | 5.2 | 15.6 | 0.00 | 0.00 | 0.00 | 34 | 998.4 |
| 20260504211006 | 61 | 251 | 4.3 | 11.3 | 0.00 | 0.00 | 0.00 | 34 | 998.4 |
| 20260504210506 | 62 | 277 | 6.1 | 13.9 | 0.00 | 0.00 | 0.00 | 32 | 998.4 |
| 20260504210005 | 63 | 265 | 4.3 | 12.2 | 0.00 | 0.00 | 0.00 | 33 | 998.2 |
| 20260504205505 | 63 | 241 | 4.3 | 10.4 | 0.00 | 0.00 | 0.00 | 34 | 998.2 |
| 20260504205006 | 63 | 252 | 3.5 | 11.3 | 0.00 | 0.00 | 0.00 | 31 | 998.0 |
| 20260504204006 | 64 | 262 | 4.3 | 13.0 | 0.00 | 0.00 | 0.00 | 31 | 997.9 |
| 20260504203506 | 64 | 266 | 4.3 | 13.0 | 0.00 | 0.00 | 0.00 | 30 | 997.9 |
| 20260504203006 | 64 | 312 | 4.3 | 14.8 | 0.00 | 0.00 | 0.00 | 31 | 997.9 |
| 20260504202506 | 64 | 298 | 5.2 | 12.2 | 0.00 | 0.00 | 0.00 | 32 | 997.7 |
| 20260504202005 | 64 | 286 | 5.2 | 12.2 | 0.00 | 0.00 | 0.00 | 35 | 997.7 |
| 20260504201506 | 64 | 245 | 2.6 | 10.4 | 0.00 | 0.00 | 0.00 | 33 | 997.7 |
| 20260504201005 | 63 | 258 | 4.3 | 10.4 | 0.00 | 0.00 | 0.00 | 34 | 997.7 |
| 20260504200506 | 63 | 254 | 2.6 | 7.0 | 0.00 | 0.00 | 0.00 | 31 | 997.7 |
| 20260504195506 | 63 | 252 | 2.6 | 8.7 | 0.00 | 0.00 | 0.00 | 31 | 997.6 |
| 20260504195006 | 63 | 236 | 4.3 | 13.9 | 0.00 | 0.00 | 0.00 | 32 | 997.7 |
| 20260504194505 | 64 | 226 | 5.2 | 13.9 | 0.00 | 0.00 | 0.00 | 32 | 997.6 |
| 20260504194005 | 64 | 295 | 6.1 | 14.8 | 0.00 | 0.00 | 0.00 | 31 | 997.5 |
| 20260504193505 | 64 | 254 | 2.6 | 10.4 | 0.00 | 0.00 | 0.00 | 30 | 997.6 |
| 20260504193006 | 64 | 294 | 4.3 | 10.4 | 0.00 | 0.00 | 0.00 | 31 | 997.6 |
| 20260504192505 | 64 | 265 | 5.2 | 13.0 | 0.00 | 0.00 | 0.00 | 31 | 997.6 |
| 20260504192005 | 64 | 225 | 4.3 | 8.7 | 0.00 | 0.00 | 0.00 | 35 | 997.5 |
| 20260504191506 | 64 | 241 | 4.3 | 7.8 | 0.00 | 0.00 | 0.00 | 33 | 997.7 |
| 20260504191006 | 63 | 234 | 2.6 | 7.0 | 0.00 | 0.00 | 0.00 | 36 | 997.5 |
| 20260504190505 | 63 | 269 | 3.5 | 7.8 | 0.00 | 0.00 | 0.00 | 36 | 997.4 |
| 20260504190005 | 63 | 255 | 2.6 | 7.0 | 0.00 | 0.00 | 0.00 | 38 | 997.4 |
| 20260504185505 | 63 | 228 | 1.7 | 5.2 | 0.00 | 0.00 | 0.00 | 37 | 997.3 |
| 20260504184505 | 63 | 272 | 2.6 | 5.2 | 0.00 | 0.00 | 0.00 | 36 | 997.2 |
| 20260504184005 | 64 | 257 | 1.7 | 7.8 | 0.00 | 0.00 | 0.00 | 37 | 997.1 |
| 20260504183506 | 64 | 225 | 2.6 | 7.8 | 0.00 | 0.00 | 0.00 | 37 | 997.1 |
| 20260504182505 | 64 | 272 | 3.5 | 7.8 | 0.00 | 0.00 | 0.00 | 35 | 996.9 |
| 20260504181505 | 64 | 216 | 2.6 | 8.7 | 0.00 | 0.00 | 0.00 | 32 | 996.8 |
| 20260504181005 | 65 | 213 | 4.3 | 10.4 | 0.00 | 0.00 | 0.00 | 30 | 996.7 |
| 20260504180505 | 66 | 222 | 4.3 | 10.4 | 0.00 | 0.00 | 0.00 | 32 | 996.6 |
| 20260504180006 | 66 | 219 | 2.6 | 10.4 | 0.00 | 0.00 | 0.00 | 36 | 996.5 |
| 20260504175505 | 66 | 235 | 3.5 | 6.1 | 0.00 | 0.00 | 0.00 | 34 | 996.4 |
| 20260504175005 | 66 | 230 | 3.5 | 7.0 | 0.00 | 0.00 | 0.00 | 35 | 996.3 |
| 20260504174505 | 66 | 284 | 5.2 | 11.3 | 0.00 | 0.00 | 0.00 | 38 | 996.3 |
| 20260504174006 | 66 | 274 | 3.5 | 8.7 | 0.00 | 0.00 | 0.00 | 37 | 996.4 |
| 20260504173505 | 66 | 225 | 2.6 | 4.3 | 0.00 | 0.00 | 0.00 | 37 | 996.4 |
| 20260504173005 | 66 | 217 | 2.6 | 10.4 | 0.00 | 0.00 | 0.00 | 38 | 996.4 |
| 20260504172505 | 66 | 286 | 3.5 | 10.4 | 0.00 | 0.00 | 0.00 | 39 | 996.3 |
| 20260504172005 | 65 | 282 | 4.3 | 11.3 | 0.00 | 0.00 | 0.00 | 38 | 996.4 |
| 20260504171505 | 65 | 292 | 4.3 | 10.4 | 0.00 | 0.00 | 0.00 | 39 | 996.5 |
| 20260504171005 | 64 | 295 | 0.9 | 2.6 | 0.00 | 0.00 | 0.00 | 37 | 996.4 |
| 20260504170505 | 65 | 264 | 4.3 | 10.4 | 0.00 | 0.00 | 0.00 | 36 | 996.4 |
| 20260504151006 | 64 | 216 | 2.6 | 7.0 | 0.00 | 0.00 | 0.00 | 49 | 995.8 |
| 20260504150505 | 64 | 284 | 1.7 | 5.2 | 0.00 | 0.00 | 0.00 | 48 | 995.9 |
| 20260504141006 | 63 | 225 | 2.6 | 11.3 | 0.00 | 0.00 | 0.00 | 48 | 995.8 |
| 20260504140505 | 63 | 226 | 4.3 | 8.7 | 0.00 | 0.00 | 0.00 | 47 | 995.8 |
| 20260504130505 | 59 | 176 | 4.3 | 10.4 | 0.00 | 0.00 | 0.00 | 51 | 995.1 |
| 20260504110505 | 54 | 189 | 5.2 | 10.4 | 0.00 | 0.00 | 0.00 | 54 | 995.8 |
| 20260504100505 | 52 | 169 | 4.3 | 8.7 | 0.00 | 0.00 | 0.00 | 58 | 996.5 |
| 20260504082006 | 50 | 161 | 1.7 | 5.2 | 0.00 | 0.00 | 0.00 | 60 | 997.7 |
| 20260504081006 | 50 | 174 | 1.7 | 2.6 | 0.00 | 0.00 | 0.00 | 61 | 998.0 |
| 20260504045506 | 52 | 314 | 0.0 | 0.0 | 0.00 | 0.00 | 0.00 | 55 | 1001.1 |
| 20260504045007 | 52 | 314 | 0.0 | 0.0 | 0.00 | 0.00 | 0.00 | 55 | 1001.1 |
| 20260504044506 | 52 | 314 | 0.0 | 0.0 | 0.00 | 0.00 | 0.00 | 56 | 1001.1 |
| 20260504044006 | 52 | 314 | 0.0 | 0.0 | 0.00 | 0.00 | 0.00 | 55 | 1001.2 |
| 20260504043506 | 52 | 314 | 0.0 | 0.0 | 0.00 | 0.00 | 0.00 | 54 | 1001.3 |
| 20260504043006 | 52 | 314 | 0.0 | 0.0 | 0.00 | 0.00 | 0.00 | 54 | 1001.3 |
| 20260504042506 | 52 | 314 | 0.0 | 0.0 | 0.00 | 0.00 | 0.00 | 53 | 1001.4 |
| 20260504042006 | 52 | 314 | 0.0 | 0.0 | 0.00 | 0.00 | 0.00 | 52 | 1001.4 |
| 20260504041506 | 53 | 314 | 0.0 | 0.0 | 0.00 | 0.00 | 0.00 | 52 | 1001.6 |
| 20260504041007 | 53 | 314 | 0.0 | 0.0 | 0.00 | 0.00 | 0.00 | 51 | 1001.6 |
| 20260504040506 | 53 | 314 | 0.0 | 0.0 | 0.00 | 0.00 | 0.00 | 51 | 1001.7 |
| 20260504035506 | 54 | 314 | 0.0 | 0.0 | 0.00 | 0.00 | 0.00 | 50 | 1001.8 |
| 20260504034507 | 55 | 314 | 0.0 | 0.0 | 0.00 | 0.00 | 0.00 | 48 | 1002.0 |
| 20260504034007 | 55 | 314 | 0.0 | 0.0 | 0.00 | 0.00 | 0.00 | 47 | 1002.0 |
| 20260504033506 | 55 | 314 | 0.0 | 0.0 | 0.00 | 0.00 | 0.00 | 46 | 1002.0 |
| 20260504033006 | 55 | 314 | 0.0 | 0.0 | 0.00 | 0.00 | 0.00 | 46 | 1002.0 |
| 20260504032506 | 55 | 314 | 0.0 | 0.0 | 0.00 | 0.00 | 0.00 | 45 | 1002.0 |
| 20260504032006 | 55 | 314 | 0.0 | 0.0 | 0.00 | 0.00 | 0.00 | 45 | 1002.1 |
| 20260504031507 | 56 | 314 | 0.0 | 0.0 | 0.00 | 0.00 | 0.00 | 44 | 1002.2 |
| 20260504030507 | 56 | 314 | 0.0 | 0.0 | 0.00 | 0.00 | 0.00 | 44 | 1002.4 |
| 20260504030006 | 56 | 314 | 0.0 | 0.0 | 0.00 | 0.00 | 0.00 | 44 | 1002.5 |
| 20260504025506 | 56 | 314 | 0.0 | 0.0 | 0.00 | 0.00 | 0.00 | 44 | 1002.6 |
| 20260504025006 | 56 | 314 | 0.0 | 0.0 | 0.00 | 0.00 | 0.00 | 44 | 1002.6 |
| 20260504024506 | 57 | 314 | 0.0 | 0.0 | 0.00 | 0.00 | 0.00 | 44 | 1002.6 |
| 20260504024006 | 57 | 314 | 0.0 | 0.0 | 0.00 | 0.00 | 0.00 | 43 | 1002.6 |
| 20260504023506 | 58 | 314 | 0.0 | 0.0 | 0.00 | 0.00 | 0.00 | 42 | 1002.5 |